Wind_Speed
41 41 42 42 43 43 43 42 43 41 40 38 38 39 40 40 40 40 40 40 40 41 41 42 42 42 43 43 44 44 43 43 43 41 41 41 41 41 42 42 42 44 44 46
42 41 42 43 42 41 41 41 42 42 41 37 38 40 40 40 40 40 40 40 40 40 41 42 42 42 42 43 43 44 43 42 42 40 39 40 39 39 40 41 41 43 45 46
41 41 42 43 39 41 42 42 42 43 40 39 39 39 39 39 39 40 40 39 40 41 42 42 42 42 42 43 44 43 42 40 40 39 39 39 38 38 38 39 40 42 42 43
40 41 44 40 38 39 40 40 41 41 40 40 41 40 40 40 40 41 40 40 40 41 41 41 41 41 42 43 43 43 42 40 40 39 39 38 38 38 38 39 41 41 42 42
40 41 42 38 36 38 40 41 40 40 40 40 41 41 41 40 41 41 41 42 42 42 42 42 42 42 42 43 43 42 42 40 39 39 39 38 38 38 39 40 41 40 40 40
40 41 41 36 35 37 39 40 38 39 40 40 41 41 41 41 41 41 42 42 42 42 42 42 42 42 42 42 42 41 40 39 39 38 38 38 38 39 40 40 39 39 39 38
38 40 39 37 37 37 39 38 38 39 40 40 41 40 40 40 40 41 41 41 42 42 42 42 42 42 42 42 41 41 40 39 38 37 37 37 38 39 39 39 39 38 37 37
36 38 37 35 37 37 37 37 38 38 38 39 40 39 39 39 39 40 41 41 42 42 42 42 42 42 41 41 41 40 39 38 37 37 37 38 38 38 39 39 37 36 36 36
34 35 35 34 35 35 36 36 36 36 37 38 39 39 40 40 40 40 40 41 41 41 42 42 42 42 41 41 40 40 38 37 37 37 38 38 37 37 37 37 37 36 36 35
33 33 33 34 35 36 36 36 36 36 37 37 38 38 39 39 39 39 39 39 40 40 41 40 40 40 40 39 39 38 38 37 37 37 38 38 38 37 36 36 36 35 35 33
33 32 33 34 35 35 36 36 36 36 36 37 37 37 38 38 38 38 38 38 39 39 39 39 39 39 39 39 39 38 37 37 38 38 38 37 37 36 35 34 35 34 33 32
32 33 35 35 36 36 36 36 36 36 36 37 37 37 38 39 39 39 38 38 38 38 38 38 38 39 39 39 38 37 37 37 38 37 37 36 35 34 34 33 33 32 31 30
31 32 33 33 34 36 37 37 37 37 37 37 38 38 39 39 39 39 39 38 38 38 38 38 38 38 38 38 37 37 37 36 36 35 35 34 34 33 32 32 32 31 30 28
30 31 31 31 33 34 35 36 37 37 37 37 37 37 37 38 38 38 37 37 37 37 36 36 36 37 37 36 36 36 35 35 34 33 33 32 32 31 30 29 29 28 28 28
29 30 30 30 31 32 33 34 34 34 35 34 35 35 35 36 36 37 36 36 36 35 35 35 35 35 35 35 35 35 34 34 33 32 31 30 30 29 28 27 26 26 27 27
29 29 30 30 30 30 31 31 32 32 32 32 33 33 34 35 35 35 35 35 34 34 34 34 34 35 35 34 34 34 33 32 32 31 29 28 28 27 27 26 25 25 26 26
26 27 28 28 29 29 29 30 30 31 31 31 32 32 33 33 33 34 34 33 33 33 33 34 34 34 34 34 33 32 31 31 30 29 28 27 27 26 26 26 25 24 24 24
25 26 26 27 28 28 28 29 30 30 30 30 30 30 30 30 31 32 32 32 33 33 33 33 33 33 33 32 31 31 30 29 28 27 26 26 25 25 25 24 23 23 23 23
24 24 25 26 26 27 27 28 28 29 30 30 30 30 30 30 30 31 31 32 32 32 32 32 32 32 31 30 29 29 28 27 26 25 25 24 24 23 23 23 22 22 22 21
23 24 24 24 24 25 25 26 26 27 28 29 30 30 30 31 31 31 31 31 31 31 31 30 30 30 29 28 27 27 26 25 24 23 23 22 22 22 21 21 21 20 20 20
23 24 23 23 24 24 24 25 25 26 27 28 28 29 29 29 29 29 29 29 29 29 29 28 28 27 27 26 25 25 24 24 23 22 22 21 21 20 20 20 19 19 18 18
22 23 23 23 23 23 24 24 24 25 25 26 26 27 27 27 27 27 28 28 28 28 27 27 26 25 24 24 24 24 23 23 22 22 21 21 20 20 19 18 18 17 16 16
21 22 22 22 22 22 23 23 23 23 23 24 25 25 25 26 26 27 27 27 27 27 26 25 24 24 23 23 22 22 22 21 21 20 20 20 20 19 18 17 16 15 15 14
21 21 21 21 21 21 22 22 22 22 23 23 23 23 24 24 24 25 25 25 25 25 25 24 23 23 22 21 21 20 20 20 19 19 18 18 18 18 17 15 14 14 13 13
20 20 20 20 20 21 21 21 21 20 20 21 21 21 22 22 22 22 22 22 22 22 22 22 22 21 20 20 19 19 18 18 17 16 16 16 15 15 14 13 13 12 12 12
19 19 20 20 20 20 20 20 19 19 19 19 20 19 19 19 19 18 18 18 19 19 19 19 19 18 18 18 18 17 17 17 16 16 15 14 14 13 12 12 12 12 11 11
19 19 18 18 18 18 18 18 18 18 18 18 18 18 18 17 17 18 17 17 16 16 16 15 15 15 14 14 15 15 15 15 15 14 13 13 13 12 11 11 10 10 10 10
Wind_Direction
251 252 253 253 254 256 257 259 261 262 263 265 267 268 270 271 273 274 276 278 279 280 281 283 284 285 287 289 289 288 287 285 286 285 283 283 282 280 277 274 272 273 272 272
252 252 253 253 253 255 257 258 259 260 262 264 265 266 268 269 271 273 275 276 278 280 282 283 284 285 288 290 290 289 288 285 284 284 283 283 282 280 278 276 275 275 274 273
252 252 254 253 255 257 257 258 259 260 261 261 262 264 266 267 269 271 272 274 276 278 280 282 283 285 287 290 290 290 289 286 285 284 283 282 281 281 279 278 276 276 275 275
255 254 255 256 256 256 257 257 259 260 261 261 263 264 265 267 268 270 272 273 275 278 280 281 283 284 287 289 289 289 288 286 285 285 283 282 280 280 279 277 277 278 277 276
257 257 257 256 257 257 256 256 258 260 261 262 263 263 265 267 268 269 271 273 275 277 279 281 281 284 286 288 288 288 287 285 284 284 283 281 279 278 279 279 278 278 277 277
258 260 259 259 259 260 260 260 259 261 262 263 263 264 266 267 268 270 272 274 276 278 279 281 282 284 286 288 287 286 286 284 282 282 282 281 279 280 280 279 279 278 278 278
258 261 261 262 263 263 262 263 263 263 263 264 265 267 267 268 269 271 273 274 276 278 280 282 283 284 286 287 286 284 284 283 282 281 282 281 280 280 280 279 278 278 279 279
258 260 262 263 264 263 264 264 265 265 265 265 266 267 268 270 271 272 273 274 276 278 280 281 282 284 285 286 285 284 284 283 282 282 282 281 281 280 279 279 278 277 279 279
259 260 261 261 262 262 263 263 263 265 265 266 267 268 269 270 272 273 274 275 276 278 279 280 282 283 284 284 284 284 284 283 282 282 283 283 281 281 280 279 278 278 278 277
258 259 258 259 260 261 261 261 262 263 264 265 267 268 269 270 272 274 275 276 277 278 279 280 282 283 283 283 283 283 282 282 282 283 283 283 283 282 281 280 280 279 276 274
257 257 259 259 261 261 260 261 263 264 264 265 266 267 269 270 271 273 275 276 278 278 279 280 282 283 283 283 283 282 282 282 282 284 284 282 282 282 281 280 280 278 275 273
257 258 261 262 262 261 261 262 264 265 266 267 269 269 270 270 271 273 275 276 277 278 279 279 281 282 283 283 282 281 281 282 282 283 283 282 281 281 280 279 279 278 276 274
260 261 262 263 263 263 263 263 265 266 268 269 271 271 271 270 271 273 275 276 277 278 278 279 280 280 282 283 282 282 282 283 283 283 282 281 280 279 278 277 278 276 274 272
261 263 264 266 266 266 265 265 266 267 268 270 271 271 271 271 272 274 275 276 277 278 278 279 280 281 282 282 282 283 283 284 284 282 281 280 279 278 278 277 275 272 270 269
263 265 268 270 270 270 269 269 268 268 268 270 271 271 271 272 273 274 276 276 277 277 277 278 280 281 282 281 282 283 284 284 283 282 280 279 278 278 277 276 275 273 271 269
267 269 271 272 272 272 271 269 268 268 268 269 270 272 273 273 273 274 274 275 276 277 277 278 280 282 282 282 282 283 283 283 283 282 280 278 278 277 276 275 275 274 272 270
269 270 271 271 272 272 271 270 270 270 271 271 271 272 273 273 274 274 274 275 276 277 277 278 280 282 282 282 282 281 281 281 281 280 279 278 277 276 275 275 275 274 271 269
271 272 273 273 273 273 272 273 272 272 272 273 273 273 274 274 275 275 275 275 276 277 278 279 281 282 282 280 280 280 280 279 279 278 278 278 277 276 275 275 274 273 271 269
274 276 276 276 275 275 274 274 274 272 272 272 273 273 274 275 276 276 276 275 276 277 278 280 281 282 281 279 278 278 279 279 277 277 277 277 276 275 274 274 273 272 271 269
277 278 278 278 277 277 276 275 275 274 273 273 274 275 275 275 276 276 276 277 277 278 278 279 281 281 280 278 277 277 277 276 275 274 274 274 273 273 273 272 271 270 270 268
280 281 281 280 280 280 279 279 278 277 276 276 276 276 276 276 276 276 276 278 279 279 280 280 280 280 278 277 276 275 274 273 271 270 271 271 271 271 271 270 269 268 267 265
281 282 282 282 282 282 281 280 280 280 280 279 278 277 276 276 277 277 278 279 280 280 280 280 280 278 276 276 276 274 272 270 269 269 268 268 269 268 268 267 267 265 263 261
283 284 284 285 285 285 284 283 282 283 283 282 281 280 279 278 278 278 279 280 280 280 279 278 277 276 274 275 275 273 270 267 267 265 265 265 266 266 265 266 262 259 257 254
285 286 286 287 287 288 287 286 286 285 285 285 284 282 282 281 280 280 280 280 280 279 277 275 275 275 273 273 272 270 267 264 263 262 263 263 263 262 261 259 255 251 251 251
288 288 289 289 289 290 290 289 288 288 288 288 287 285 285 285 285 285 285 283 281 279 277 275 273 272 270 269 267 265 262 259 258 258 259 258 256 255 253 251 248 246 247 247
291 292 292 292 291 291 290 289 289 289 289 291 290 289 289 289 289 289 288 287 285 283 281 276 272 269 267 265 262 260 257 254 253 252 251 249 248 246 246 246 242 241 241 241
294 295 295 293 293 294 293 291 290 290 290 291 291 290 290 290 291 292 291 289 288 286 283 278 273 268 265 262 259 255 252 251 248 245 242 240 237 235 237 238 236 236 238 236
Height
5563 5564 5566 5567 5570 5571 5572 5574 5576 5579 5581 5584 5582 5582 5581 5581 5580 5580 5580 5579 5578 5576 5575 5573 5571 5568 5565 5562 5559 5555 5552 5549 5545 5542 5539 5535 5533 5530 5528 5527 5527 5527 5526 5526
5551 5553 5553 5555 5559 5560 5561 5562 5564 5566 5569 5572 5571 5570 5570 5570 5570 5569 5569 5568 5567 5565 5563 5561 5559 5556 5554 5551 5547 5544 5541 5537 5534 5531 5528 5525 5522 5520 5518 5516 5515 5514 5513 5512
5539 5542 5540 5544 5551 5550 5550 5552 5553 5554 5559 5560 5559 5559 5559 5559 5559 5558 5558 5557 5556 5554 5552 5550 5548 5545 5543 5540 5536 5533 5529 5526 5523 5520 5517 5514 5512 5509 5507 5505 5504 5503 5501 5499
5527 5530 5530 5539 5540 5539 5539 5541 5542 5543 5546 5547 5547 5547 5547 5548 5547 5547 5546 5545 5544 5542 5540 5539 5536 5534 5531 5528 5525 5522 5519 5516 5513 5509 5507 5504 5501 5499 5497 5495 5493 5491 5489 5487
5516 5517 5519 5527 5529 5528 5527 5529 5532 5532 5533 5535 5535 5535 5536 5536 5536 5535 5534 5533 5532 5530 5528 5527 5525 5523 5520 5517 5514 5511 5508 5505 5502 5499 5496 5493 5491 5488 5486 5484 5482 5480 5478 5476
5506 5506 5509 5517 5518 5516 5516 5517 5521 5520 5521 5522 5523 5524 5526 5524 5524 5523 5522 5521 5520 5518 5516 5515 5513 5511 5508 5506 5503 5500 5497 5494 5491 5488 5486 5483 5481 5478 5476 5473 5472 5470 5468 5466
5496 5495 5498 5506 5506 5505 5507 5508 5508 5509 5509 5511 5511 5512 5513 5512 5512 5511 5511 5509 5508 5506 5505 5503 5501 5499 5497 5494 5492 5489 5486 5483 5481 5478 5475 5473 5470 5468 5465 5463 5461 5459 5458 5456
5486 5486 5492 5494 5494 5495 5495 5495 5496 5497 5497 5498 5499 5500 5500 5500 5500 5499 5498 5497 5496 5494 5493 5491 5489 5487 5485 5482 5480 5477 5475 5472 5470 5467 5465 5462 5460 5457 5455 5452 5451 5449 5447 5446
5477 5480 5481 5482 5482 5483 5483 5484 5485 5486 5486 5487 5488 5488 5488 5488 5488 5487 5486 5485 5484 5482 5481 5479 5477 5475 5473 5471 5468 5466 5463 5461 5459 5456 5454 5451 5449 5446 5444 5442 5440 5439 5437 5436
5466 5469 5470 5471 5471 5472 5472 5473 5474 5475 5475 5476 5476 5476 5476 5476 5476 5475 5474 5473 5472 5470 5469 5467 5465 5463 5461 5459 5457 5454 5452 5450 5448 5446 5443 5441 5438 5435 5433 5431 5430 5428 5427 5426
5456 5459 5459 5460 5461 5461 5462 5462 5463 5464 5464 5465 5465 5465 5465 5464 5464 5463 5462 5461 5460 5458 5457 5456 5453 5451 5449 5447 5445 5443 5442 5440 5438 5435 5433 5430 5428 5425 5423 5421 5419 5418 5417 5417
5448 5449 5449 5450 5451 5451 5451 5452 5453 5453 5453 5453 5453 5453 5453 5453 5452 5452 5451 5450 5448 5447 5445 5444 5442 5440 5438 5436 5434 5432 5430 5429 5427 5424 5422 5420 5418 5416 5413 5411 5410 5408 5407 5407
5438 5438 5439 5440 5440 5440 5441 5441 5442 5442 5442 5442 5442 5442 5441 5441 5441 5440 5439 5438 5437 5436 5434 5433 5431 5429 5427 5425 5422 5421 5419 5417 5415 5413 5411 5409 5408 5406 5405 5403 5401 5399 5399 5398
5429 5429 5429 5430 5430 5430 5430 5430 5431 5431 5431 5431 5431 5430 5430 5429 5429 5428 5427 5427 5426 5424 5423 5421 5420 5418 5416 5414 5412 5410 5408 5406 5404 5403 5401 5399 5398 5396 5395 5394 5393 5392 5391 5390
5420 5420 5420 5420 5420 5420 5420 5420 5420 5420 5420 5420 5420 5419 5419 5418 5418 5417 5416 5415 5414 5413 5412 5411 5409 5408 5405 5404 5402 5400 5398 5396 5394 5393 5391 5390 5388 5387 5386 5385 5384 5384 5383 5382
5412 5411 5411 5411 5411 5410 5410 5410 5410 5410 5410 5410 5409 5409 5408 5407 5407 5406 5405 5404 5404 5403 5402 5400 5399 5397 5395 5393 5391 5390 5388 5386 5385 5383 5382 5381 5380 5379 5378 5377 5376 5376 5375 5375
5403 5403 5402 5402 5402 5401 5401 5401 5400 5400 5400 5399 5399 5398 5398 5397 5396 5395 5395 5394 5393 5392 5391 5390 5389 5387 5385 5383 5381 5380 5378 5377 5375 5374 5373 5372 5371 5371 5370 5369 5368 5368 5368 5367
5395 5394 5394 5393 5393 5392 5392 5391 5391 5390 5390 5389 5389 5388 5387 5387 5386 5385 5384 5383 5383 5382 5380 5379 5378 5376 5374 5373 5371 5370 5369 5368 5367 5366 5365 5364 5363 5362 5362 5361 5361 5361 5360 5360
5387 5386 5386 5385 5384 5383 5382 5381 5381 5380 5380 5379 5379 5378 5377 5377 5376 5375 5374 5373 5372 5371 5371 5369 5368 5366 5364 5363 5362 5361 5360 5359 5358 5357 5357 5356 5355 5355 5354 5354 5354 5354 5353 5353
5380 5379 5378 5376 5375 5374 5373 5372 5372 5371 5370 5369 5369 5368 5367 5367 5366 5365 5364 5363 5362 5361 5360 5359 5358 5356 5355 5354 5353 5352 5351 5351 5350 5350 5349 5349 5348 5348 5347 5347 5347 5347 5347 5347
5372 5371 5370 5368 5367 5366 5365 5364 5363 5362 5361 5360 5359 5358 5358 5357 5356 5355 5354 5353 5352 5351 5350 5349 5348 5347 5346 5345 5344 5343 5343 5342 5342 5342 5342 5342 5341 5341 5341 5341 5341 5341 5341 5341
5364 5363 5362 5361 5359 5358 5357 5356 5355 5353 5352 5351 5350 5349 5348 5347 5346 5345 5344 5344 5343 5342 5341 5340 5339 5338 5337 5336 5336 5335 5335 5334 5335 5335 5335 5335 5335 5335 5335 5335 5335 5335 5336 5336
5357 5356 5355 5353 5352 5350 5349 5348 5346 5345 5344 5343 5341 5340 5339 5338 5337 5336 5336 5334 5333 5332 5331 5330 5330 5329 5328 5328 5327 5327 5327 5327 5327 5327 5328 5328 5328 5329 5329 5329 5330 5330 5331 5331
5351 5349 5348 5346 5345 5343 5342 5340 5339 5337 5336 5334 5333 5332 5331 5329 5328 5327 5326 5325 5324 5323 5322 5321 5321 5321 5320 5320 5320 5319 5319 5319 5320 5320 5321 5321 5322 5322 5323 5324 5324 5325 5326 5327
5344 5342 5341 5339 5338 5336 5334 5333 5331 5330 5328 5327 5325 5324 5322 5321 5320 5319 5317 5316 5315 5314 5313 5313 5312 5312 5312 5312 5312 5312 5312 5313 5313 5314 5314 5315 5316 5317 5318 5319 5320 5321 5321 5322
5337 5336 5334 5332 5331 5329 5327 5326 5324 5323 5321 5320 5318 5317 5315 5314 5312 5311 5310 5309 5307 5306 5306 5305 5305 5305 5305 5305 5305 5306 5306 5307 5307 5308 5309 5310 5311 5312 5313 5314 5315 5316 5318 5319
5331 5329 5327 5326 5324 5322 5321 5319 5318 5316 5315 5313 5312 5310 5309 5307 5306 5305 5304 5302 5301 5300 5299 5299 5298 5299 5299 5299 5299 5300 5301 5301 5302 5303 5304 5306 5307 5308 5309 5310 5311 5313 5314 5315